Weather History for Richmond, KY

Change the Weather History Date:

Tuesday, March 27, 2012

  Actual Average (KLOZ) Record (KLOZ)
Temperature  
Mean Temperature 52 °F 51 °F  
Max Temperature 69 °F 62 °F 83 °F (2007)
Min Temperature 37 °F 39 °F 14 °F (1955)
Degree Days  
Heating Degree Days 12 15  
Month to date heating degree days 493  
Since 1 July heating degree days 3769  
Cooling Degree Days 0 0  
Month to date cooling degree days 0  
Year to date cooling degree days 0  
Growing Degree Days 2 (Base 50)    
Moisture  
Dew Point 32 °F    
Average Humidity 57    
Maximum Humidity 81    
Minimum Humidity 30    
Precipitation  
Precipitation 0.00 in 0.13 in 2.61 in (1994)
Month to date precipitation 3.52  
Year to date precipitation 10.77  
Sea Level Pressure  
Sea Level Pressure 30.23 in    
Wind  
Wind Speed 5 mph (ENE)    
Max Wind Speed 9 mph    
Max Gust Speed -    
Visibility 10 miles    
Events      
T = Trace of Precipitation, MM = Missing Value Source: NWS Daily Summary

Daily Weather History Graph

Daily Weather History Graph

Search for Another Location

Airport:

Trip Planner

Search our weather history database for the weather conditions in past years. The results will help you decide how hot, cold, wet, or windy it might be!

Date:

Astronomy

Mar. 27, 2012 Rise Set
Actual Time 7:29 AM EDT 7:56 PM EDT
Civil Twilight 7:03 AM EDT 8:22 PM EDT
Nautical Twilight 6:32 AM EDT 8:53 PM EDT
Astronomical Twilight 6:00 AM EDT 9:24 PM EDT
Moon 10:05 AM EDT (3/27) No Moon Set
Length of Visible Light 13h 19m
Length of Day
12h 26m
Waxing Crescent, 22% of the Moon is Illuminated
Mar 27
Waxing Crescent
Mar 30
First Quarter
Apr 6
Full
Apr 13
Last Quarter
Apr 21
New

Hourly Weather History & Observations

Time (EDT) Temp. Windchill Dew Point Humidity Pressure Visibility Wind Dir Wind Speed Gust Speed Precip Events Conditions
12:15 AM 42.8 °F 41.1 °F 32.0 °F 66% 30.24 in 10.0 mi NNE 3.5 mph - N/A   Clear
12:35 AM 42.8 °F 40.1 °F 32.0 °F 66% 30.24 in 10.0 mi NNE 4.6 mph - N/A   Clear
12:55 AM 42.8 °F 40.1 °F 32.0 °F 66% 30.25 in 10.0 mi NNE 4.6 mph - N/A   Clear
1:15 AM 41.0 °F 38.0 °F 32.0 °F 70% 30.25 in 10.0 mi NNE 4.6 mph - N/A   Clear
1:35 AM 41.0 °F 37.1 °F 32.0 °F 70% 30.25 in 10.0 mi NNE 5.8 mph - N/A   Clear
1:55 AM 41.0 °F 36.4 °F 32.0 °F 70% 30.25 in 10.0 mi NE 6.9 mph - N/A   Clear
2:15 AM 39.2 °F 35.0 °F 32.0 °F 75% 30.25 in 10.0 mi NNE 5.8 mph - N/A   Clear
2:35 AM 39.2 °F 34.2 °F 32.0 °F 75% 30.25 in 10.0 mi NE 6.9 mph - N/A   Clear
2:55 AM 39.2 °F 34.2 °F 32.0 °F 75% 30.25 in 10.0 mi ENE 6.9 mph - N/A   Clear
3:15 AM 37.4 °F 32.8 °F 32.0 °F 81% 30.25 in 10.0 mi ENE 5.8 mph - N/A   Clear
3:35 AM 37.4 °F 34.9 °F 32.0 °F 81% 30.25 in 10.0 mi ENE 3.5 mph - N/A   Clear
3:55 AM 37.4 °F 34.9 °F 32.0 °F 81% 30.25 in 10.0 mi East 3.5 mph - N/A   Clear
4:35 AM 37.4 °F 31.4 °F 32.0 °F 81% 30.24 in 10.0 mi East 8.1 mph - N/A   Clear
4:55 AM 37.4 °F 33.8 °F 30.2 °F 75% 30.25 in 10.0 mi ENE 4.6 mph - N/A   Clear
5:15 AM 37.4 °F 33.8 °F 28.4 °F 70% 30.25 in 10.0 mi East 4.6 mph - N/A   Clear
5:35 AM 37.4 °F 33.8 °F 28.4 °F 70% 30.25 in 10.0 mi ENE 4.6 mph - N/A   Clear
5:55 AM 37.4 °F 32.8 °F 28.4 °F 70% 30.25 in 10.0 mi East 5.8 mph - N/A   Clear
6:15 AM 37.4 °F 32.1 °F 28.4 °F 70% 30.25 in 10.0 mi ENE 6.9 mph - N/A   Clear
6:35 AM 37.4 °F 32.1 °F 26.6 °F 65% 30.25 in 10.0 mi East 6.9 mph - N/A   Clear
6:55 AM 37.4 °F 30.8 °F 26.6 °F 65% 30.25 in 10.0 mi East 9.2 mph - N/A   Clear
7:15 AM 37.4 °F 31.4 °F 26.6 °F 65% 30.25 in 10.0 mi East 8.1 mph - N/A   Clear
7:35 AM 37.4 °F 32.1 °F 26.6 °F 65% 30.25 in 10.0 mi ENE 6.9 mph - N/A   Clear
7:55 AM 37.4 °F 30.8 °F 26.6 °F 65% 30.25 in 10.0 mi East 9.2 mph - N/A   Clear
8:15 AM 37.4 °F 32.8 °F 26.6 °F 65% 30.27 in 10.0 mi East 5.8 mph - N/A   Clear
8:35 AM 37.4 °F 32.1 °F 28.4 °F 70% 30.27 in 10.0 mi East 6.9 mph - N/A   Clear
8:55 AM 39.2 °F 35.0 °F 28.4 °F 65% 30.27 in 10.0 mi East 5.8 mph - N/A   Clear
9:15 AM 41.0 °F 37.1 °F 28.4 °F 61% 30.27 in 10.0 mi East 5.8 mph - N/A   Clear
9:35 AM 42.8 °F 38.6 °F 28.4 °F 57% 30.27 in 10.0 mi ESE 6.9 mph - N/A   Clear
9:55 AM 42.8 °F 38.0 °F 28.4 °F 57% 30.27 in 10.0 mi East 8.1 mph - N/A   Clear
10:15 AM 42.8 °F 40.1 °F 28.4 °F 57% 30.27 in 10.0 mi ESE 4.6 mph - N/A   Clear
10:35 AM 46.4 °F 43.5 °F 30.2 °F 53% 30.26 in 10.0 mi East 5.8 mph - N/A   Clear
10:55 AM 48.2 °F - 30.2 °F 50% 30.25 in 10.0 mi East 6.9 mph - N/A   Clear
11:15 AM 48.2 °F - 30.2 °F 50% 30.26 in 10.0 mi ENE 5.8 mph - N/A   Clear
11:35 AM 50.0 °F - 33.8 °F 54% 30.25 in 10.0 mi ENE 8.1 mph - N/A   Clear
11:55 AM 51.8 °F - 33.8 °F 50% 30.25 in 10.0 mi East 6.9 mph - N/A   Clear
12:15 PM 53.6 °F - 33.8 °F 47% 30.24 in 10.0 mi East 3.5 mph - N/A   Clear
12:35 PM 55.4 °F - 35.6 °F 47% 30.23 in 10.0 mi NE 4.6 mph - N/A   Clear
12:55 PM 57.2 °F - 35.6 °F 44% 30.22 in 10.0 mi ENE 3.5 mph - N/A   Clear
1:15 PM 59.0 °F - 35.6 °F 42% 30.22 in 10.0 mi ENE 4.6 mph - N/A   Clear
1:35 PM 62.6 °F - 35.6 °F 37% 30.21 in 7.0 mi NE 3.5 mph - N/A   Clear
1:55 PM 62.6 °F - 35.6 °F 37% 30.21 in 10.0 mi NNE 3.5 mph - N/A   Clear
2:15 PM 62.6 °F - 32.0 °F 32% 30.20 in 10.0 mi NNW 3.5 mph - N/A   Clear
2:35 PM 64.4 °F - 35.6 °F 34% 30.19 in 10.0 mi NNE 5.8 mph - N/A   Clear
2:55 PM 64.4 °F - 33.8 °F 32% 30.18 in 10.0 mi NE 5.8 mph - N/A   Clear
3:15 PM 66.2 °F - 33.8 °F 30% 30.17 in 10.0 mi NE 3.5 mph - N/A   Clear
3:35 PM 66.2 °F - 37.4 °F 35% 30.16 in 10.0 mi Calm Calm - N/A   Clear
3:55 PM 68.0 °F - 35.6 °F 30% 30.15 in 10.0 mi NE 4.6 mph - N/A   Clear
4:15 PM 68.0 °F - 35.6 °F 30% 30.15 in 10.0 mi Calm Calm - N/A   Clear
4:35 PM 68.0 °F - 37.4 °F 33% 30.14 in 10.0 mi NNE 3.5 mph - N/A   Clear
4:55 PM 68.0 °F - 35.6 °F 30% 30.14 in 10.0 mi NE 3.5 mph - N/A   Clear
5:15 PM 69.8 °F - 37.4 °F 31% 30.13 in 10.0 mi Calm Calm - N/A   Clear
5:35 PM 69.8 °F - 35.6 °F 28% 30.13 in 10.0 mi North 4.6 mph - N/A   Clear
5:55 PM 69.8 °F - 37.4 °F 31% 30.12 in 10.0 mi NNE 3.5 mph - N/A   Clear
6:15 PM 69.8 °F - 37.4 °F 31% 30.12 in 10.0 mi NNE 3.5 mph - N/A   Clear
6:35 PM 69.8 °F - 37.4 °F 31% 30.11 in 10.0 mi Calm Calm - N/A   Clear
7:15 PM 68.0 °F - 39.2 °F 35% 30.10 in 10.0 mi Calm Calm - N/A   Clear
7:35 PM 68.0 °F - 35.6 °F 30% 30.09 in 10.0 mi Calm Calm - N/A   Clear
7:55 PM 68.0 °F - 33.8 °F 28% 30.09 in 10.0 mi Calm Calm - N/A   Clear
8:15 PM 66.2 °F - 33.8 °F 30% 30.09 in 10.0 mi Calm Calm - N/A   Clear
8:35 PM 64.4 °F - 33.8 °F 32% 30.08 in 10.0 mi Calm Calm - N/A   Clear
8:55 PM 62.6 °F - 33.8 °F 34% 30.08 in 10.0 mi SE 4.6 mph - N/A   Clear
9:15 PM 62.6 °F - 33.8 °F 34% 30.08 in 10.0 mi SE 4.6 mph - N/A   Clear
9:35 PM 57.2 °F - 39.2 °F 51% 30.08 in 10.0 mi SE 5.8 mph - N/A   Clear
9:55 PM 60.8 °F - 37.4 °F 42% 30.08 in 10.0 mi SE 5.8 mph - N/A   Clear
10:15 PM 60.8 °F - 37.4 °F 42% 30.07 in 10.0 mi SSE 4.6 mph - N/A   Clear
10:35 PM 62.6 °F - 35.6 °F 37% 30.07 in 10.0 mi SSE 5.8 mph - N/A   Clear
10:55 PM 62.6 °F - 37.4 °F 39% 30.06 in 10.0 mi South 5.8 mph - N/A   Clear
11:15 PM 62.6 °F - 37.4 °F 39% 30.06 in 10.0 mi South 4.6 mph - N/A   Clear
11:35 PM 64.4 °F - 39.2 °F 40% 30.05 in 10.0 mi South 5.8 mph - N/A   Clear
11:55 PM 64.4 °F - 39.2 °F 40% 30.05 in 10.0 mi South 4.6 mph - N/A   Clear